Regional Weather Roundup
Issued by NWS

Home | Current Version | Previous Version | Text Only | Print | Product List | Glossary Off
Versions: 1 2 3 4 5 6 7 8 9 10 11 12 13 14 15 16 17 18 19 20 21 22 23 24 25 26 27 28 29 30 31 32 33 34 35 36 37 38 39 40 41 42 43 44 45 46 47 48 49 50

000
ASUS43 KDMX 171806
RWRIA

WEATHER ROUNDUP FOR IOWA
NATIONAL WEATHER SERVICE DES MOINES IA
1200 PM CST FRI NOV 17 2017

NOTE: "FAIR" INDICATES FEW OR NO CLOUDS BELOW 12,000 FEET WITH NO
SIGNIFICANT WEATHER AND/OR OBSTRUCTIONS TO VISIBILITY.

* - THESE STATIONS ARE NOT NWS STATIONS...THUS NOT UNDER NWS
QUALITY CONTROL.  THEY ALSO DO NOT REPORT WEATHER SUCH
AS PRECIPITATION OR FOG.

IAZ001>003-012>014-020>022-031>034-043>046-171900-
   NORTHWEST IOWA

CITY           SKY/WX    TMP DP  RH WIND       PRES   REMARKS
CARROLL *      CLOUDY    50  46  87 S18G26    29.57F
CHEROKEE *     CLOUDY    55  48  78 S10       29.55F
DENISON *      CLOUDY    52  50  93 S18G25    29.56F
LE MARS *      PTSUNNY   57  46  67 SW9G16    29.55S
ORANGE CITY *  CLOUDY    55  48  76 SW8       29.55F
SHELDON *      CLOUDY    54  45  71 W8        29.54F
SIOUX CITY     CLOUDY    58  48  69 SW10      29.55F
6HR MIN TEMP:  45; 6HR MAX TEMP:  58;

SPENCER        CLOUDY    51  44  77 S9        29.57F
6HR MIN TEMP:  40; 6HR MAX TEMP:  51;

STORM LAKE *   CLOUDY    52  46  82 S15       29.56F
$$

IAZ055>058-069>071-079>083-090>094-171900-
   SOUTHWEST IOWA

CITY           SKY/WX    TMP DP  RH WIND       PRES   REMARKS
ATLANTIC *     CLOUDY    50  50 100 S9        29.58F FOG
AUDUBON *      CLOUDY    48  46  93 S8G16     29.58F FOG
CLARINDA *     CLOUDY    52  52 100 S5          N/A  FOG
COUNCIL BLFS * CLOUDY    54  54 100 S12       29.55F FOG
CRESTON *      CLOUDY    48  46  93 SE14      29.62F FOG
HARLAN  *      CLOUDY    50  50 100 S10       29.59F
LAMONI         CLOUDY    50  49  96 SE10G17   29.63F FOG
6HR MIN TEMP:  45; 6HR MAX TEMP:  50; 6HR PCP: TRACE;

RED OAK *      CLOUDY    50  50 100 SE8       29.59F FOG
SHENANDOAH *   CLOUDY    55  55 100 S9        29.58F FOG
$$

IAZ047>049-059>061-072>074-084-171900-
   CENTRAL IOWA

CITY           SKY/WX    TMP DP  RH WIND       PRES   REMARKS
AMES           CLOUDY    47  44  90 S15       29.63F
6HR MIN TEMP:  38; 6HR MAX TEMP:  47;

ANKENY *       CLOUDY    46  45  93 S16G22    29.65F FOG
BOONE *        CLOUDY    46  43  87 S17       29.60F
CHARITON *     CLOUDY    46  45  93 SE9G17    29.65F FOG
DES MOINES     DRIZZLE   47  44  90 S14       29.64F FOG
6HR MIN TEMP:  43; 6HR MAX TEMP:  47; 6HR PCP: TRACE;

GRINNELL*      CLOUDY    41  39  92 S15       29.69F FOG
KNOXVILLE *    CLOUDY    46  41  81 S12G17    29.65F HAZE
MARSHALLTOWN   CLOUDY    41  40  96 SE17      29.66F FOG
6HR MIN TEMP:  36; 6HR MAX TEMP:  41;

NEWTON *       CLOUDY    43  41  93 S16G23    29.67F FOG
PELLA *        CLOUDY    44  39  82 SE13      29.69F
PERRY *        CLOUDY    46  45  93 SE16      29.60F FOG
$$

IAZ004>006-015-016-023>025-035-036-171900-
   NORTH CENTRAL IOWA

CITY           SKY/WX    TMP DP  RH WIND       PRES   REMARKS
ALGONA *       CLOUDY    43  43 100 SE9       29.59F FOG
CLARION *      CLOUDY    43  43 100 S20       29.60F
ESTHERVILLE    CLOUDY    43  39  86 S8        29.59F
6HR MIN TEMP:  38; 6HR MAX TEMP:  43;

FORT DODGE *   CLOUDY    47  42  83 S12G21    29.58F
MASON CITY     LGT RAIN  38  37  97 S17       29.63F FOG     WCI  28
6HR MIN TEMP:  34; 6HR MAX TEMP:  38; 6HR PCP: TRACE;

FOREST CITY *  DRIZZLE   41  39  93 S14       29.61F
WEBSTER CITY * CLOUDY    45  41  87 SE16      29.58F
IOWA FALLS *   CLOUDY    42  40  92 SE16      29.65F FOG
$$

IAZ007>011-017>019-026>030-037>042-050>054-066-171900-
   NORTHEAST IOWA

CITY           SKY/WX    TMP DP  RH WIND       PRES   REMARKS
CEDAR RAPIDS   CLOUDY    39  37  92 S16       29.72F FOG     WCI  30
6HR MIN TEMP:  34; 6HR MAX TEMP:  39;

CHARLES CITY * CLOUDY    37  37 100 S13G18    29.67F FOG     WCI  29
CLINTON *      CLOUDY    39  35  86 S17G24    29.81F WCI  30
DECORAH *      CLOUDY    36  36 100 SE10G18   29.69F FOG     WCI  28
DUBUQUE        CLOUDY    36  34  92 S17       29.77F FOG     WCI  26
6HR MIN TEMP:  32; 6HR MAX TEMP:  36;

MONTICELLO *   CLOUDY    39  36  87 SE15G21   29.75F FOG     WCI  31
OELWEIN *      CLOUDY    36  36 100 S15G21    29.71F FOG     WCI  26
WATERLOO       LGT SNOW  37  36  96 S10       29.69F VSB 1   WCI  30
6HR MIN TEMP:  35; 6HR MAX TEMP:  37; 6HR PCP:  0.01;

$$

IAZ064-065-067-068-078-171900-
   EAST CENTRAL IOWA

CITY           SKY/WX    TMP DP  RH WIND       PRES   REMARKS
DAVENPORT      CLOUDY    39  34  82 S16G26    29.81F HAZE    WCI  30
6HR MIN TEMP:  34; 6HR MAX TEMP:  39; 6HR PCP: TRACE;

IOWA CITY      CLOUDY    41  37  86 SE14G20   29.76F FOG
6HR MIN TEMP:  35; 6HR MAX TEMP:  42; 6HR PCP:  0.02;

MT. PLEASANT * CLOUDY    41  37  83 SE16G22   29.77F FOG
MUSCATINE *    CLOUDY    41  36  81 S22       29.78F FOG
QUAD CITIES    CLOUDY    41  35  79 S12G17    29.80F
6HR MIN TEMP:  35; 6HR MAX TEMP:  41; 6HR PCP:  0.01;

$$

IAZ062-063-075>077-085>089-095>099-171900-
   SOUTHEAST IOWA

CITY           SKY/WX    TMP DP  RH WIND       PRES   REMARKS
BURLINGTON     CLOUDY    41  38  89 S14       29.79F FOG
6HR MIN TEMP:  35; 6HR MAX TEMP:  41; 6HR PCP:  0.02;

FAIRFIELD *    CLOUDY    45  37  76 SE15      29.72F
FORT MADISON * CLOUDY    43  39  87 SE14G22   29.78F FOG
KEOKUK *       CLOUDY    45  39  81 SE13      29.77F
OSKALOOSA *    CLOUDY    42  39  89 S18       29.70F FOG
OTTUMWA        CLOUDY    44  39  82 SE14      29.70F
6HR MIN TEMP:  38; 6HR MAX TEMP:  45; 6HR PCP: TRACE;

WASHINGTON *   CLOUDY    43  41  93 S20G29    29.74F
$$

ABBREVIATIONS USED IN REMARKS
   TC - TEMPERATURES IN CELSIUS
  WCI - WIND CHILL INDEX
   HX - HEAT INDEX
  VSB - VISIBILITY
$$




USA.gov is the U.S. government's official web portal to all federal, state and local government web resources and services.